Darstellungsparameter: Aktuell verwendete Einstellungen:
Skalierung der Graphiken ... ?
xyx+y,   Skalierungsfaktor:      Skalierung: Modus: x, Faktor: 1
Darstellungszeitraum ... ?
Vom - - bis: - -   Zeitraum: 03.08.2019 - 03.08.2019
Min/Max/Avg-Anzeige ... ?
Zeige MMA aktuell
Zeige MMA Monat
Zeige MMA alles
Zeige --A aktuell
Zeige --A Monat
Zeige --A alles
Keine MMA-Anzeige
MMA:
Keine MMA-Graphiken
MMA-Basis: 03.08.2019 - 03.08.2019
Quicknavigation für Darstellung... ?
Tage:      1T, 2T, 3T, 5T -1T -2T -3T -5T +1T +2T +3T +5T
Wochen: 1W, 2W, 3W -1W -2W -3W +1W +2W +3W
Monate: 1M, 3M, 6M -1M -3M -6M +1M +3M +6M
Jahre:    1J, 3J, 5J, 10J -1J -3J -5J -10J +1J +3J +5J +10J
Nutze für die Darstellung ... ?
Originaldaten oder Mittelwerte auf ...
Stundenbasis Tagesbasis Wochenbasis
Monatsbasis Jahresbasis      Datenbasis: Original-Daten
Darstellen als:
Statistik (Auto) Statistik J:M      Darstellung:
Zur Graphik,    zurück zur Übersicht aller Sensoren.
 
Tabellarische Datenbersicht: ?
 
Sensor: Nr:Datum:Temp:Feuchte:Taupunkt:
Aussen-T/F 1 03-08-2019 00:00:00 17.5 C 85 % 14.95 C
2 03-08-2019 00:05:00 17.4 C 86 % 15.03 C
3 03-08-2019 00:10:00 17.4 C 86 % 15.03 C
4 03-08-2019 00:15:00 17.4 C 86 % 15.03 C
5 03-08-2019 00:20:00 17.4 C 86 % 15.03 C
6 03-08-2019 00:25:00 17.7 C 85 % 15.15 C
7 03-08-2019 00:30:00 17.8 C 84 % 15.06 C
8 03-08-2019 00:35:00 17.9 C 84 % 15.16 C
9 03-08-2019 00:40:00 18.1 C 83 % 15.17 C
10 03-08-2019 00:45:00 18.1 C 83 % 15.17 C
11 03-08-2019 00:50:00 18.2 C 82 % 15.08 C
12 03-08-2019 00:55:00 18.2 C 82 % 15.08 C
13 03-08-2019 01:00:00 18.3 C 82 % 15.17 C
14 03-08-2019 01:05:00 18.3 C 82 % 15.17 C
15 03-08-2019 01:10:00 18.3 C 83 % 15.36 C
16 03-08-2019 01:15:00 18.3 C 82 % 15.17 C
17 03-08-2019 01:20:00 18.3 C 82 % 15.17 C
18 03-08-2019 01:25:00 18.3 C 82 % 15.17 C
19 03-08-2019 01:30:00 18.3 C 82 % 15.17 C
20 03-08-2019 01:35:00 18.3 C 82 % 15.17 C
21 03-08-2019 01:40:00 18.3 C 83 % 15.36 C
22 03-08-2019 01:45:00 18.3 C 83 % 15.36 C
23 03-08-2019 01:50:00 18.2 C 83 % 15.27 C
24 03-08-2019 01:55:00 18.2 C 84 % 15.45 C
25 03-08-2019 02:00:00 18.2 C 84 % 15.45 C
Sensor: Nr:Datum:Temp:Feuchte:Taupunkt:
Aussen-T/F 26 03-08-2019 02:05:00 18.2 C 84 % 15.45 C
27 03-08-2019 02:10:00 18.2 C 84 % 15.45 C
28 03-08-2019 02:15:00 18.2 C 84 % 15.45 C
29 03-08-2019 02:20:00 18.2 C 84 % 15.45 C
30 03-08-2019 02:25:00 18.2 C 84 % 15.45 C
31 03-08-2019 02:30:00 18.3 C 85 % 15.74 C
32 03-08-2019 02:35:00 18.3 C 84 % 15.55 C
33 03-08-2019 02:40:00 18.3 C 85 % 15.74 C
34 03-08-2019 02:45:00 18.3 C 85 % 15.74 C
35 03-08-2019 02:50:00 18.3 C 85 % 15.74 C
36 03-08-2019 02:55:00 18.2 C 85 % 15.64 C
37 03-08-2019 03:00:00 18.2 C 85 % 15.64 C
38 03-08-2019 03:05:00 18.2 C 85 % 15.64 C
39 03-08-2019 03:10:00 18.2 C 85 % 15.64 C
40 03-08-2019 03:15:00 18.2 C 85 % 15.64 C
41 03-08-2019 03:20:00 18.2 C 86 % 15.82 C
42 03-08-2019 03:25:00 18.2 C 86 % 15.82 C
43 03-08-2019 03:30:00 18.2 C 86 % 15.82 C
44 03-08-2019 03:35:00 18.2 C 86 % 15.82 C
45 03-08-2019 03:40:00 18.2 C 86 % 15.82 C
46 03-08-2019 03:45:00 18.2 C 86 % 15.82 C
47 03-08-2019 03:50:00 18.2 C 86 % 15.82 C
48 03-08-2019 03:55:00 18.2 C 86 % 15.82 C
49 03-08-2019 04:00:00 18.2 C 86 % 15.82 C
50 03-08-2019 04:05:00 18.1 C 87 % 15.9 C
Sensor: Nr:Datum:Temp:Feuchte:Taupunkt:
Aussen-T/F 51 03-08-2019 04:10:00 18.1 C 87 % 15.9 C
52 03-08-2019 04:15:00 18.1 C 87 % 15.9 C
53 03-08-2019 04:20:00 18.1 C 87 % 15.9 C
54 03-08-2019 04:25:00 18.1 C 87 % 15.9 C
55 03-08-2019 04:30:00 18.1 C 87 % 15.9 C
56 03-08-2019 04:35:00 18.2 C 87 % 16 C
57 03-08-2019 04:40:00 18.2 C 87 % 16 C
58 03-08-2019 04:45:00 18.2 C 87 % 16 C
59 03-08-2019 04:50:00 18.2 C 87 % 16 C
60 03-08-2019 04:55:00 18.2 C 87 % 16 C
61 03-08-2019 05:00:00 18.2 C 87 % 16 C
62 03-08-2019 05:05:00 18.2 C 87 % 16 C
63 03-08-2019 05:10:00 18.2 C 87 % 16 C
64 03-08-2019 05:15:00 18.2 C 87 % 16 C
65 03-08-2019 05:20:00 18.2 C 87 % 16 C
66 03-08-2019 05:25:00 18.1 C 87 % 15.9 C
67 03-08-2019 05:30:00 18.1 C 87 % 15.9 C
68 03-08-2019 05:35:00 18.1 C 87 % 15.9 C
69 03-08-2019 05:40:00 18.1 C 87 % 15.9 C
70 03-08-2019 05:45:00 18.1 C 87 % 15.9 C
71 03-08-2019 05:50:00 18.1 C 87 % 15.9 C
72 03-08-2019 05:55:00 18.1 C 87 % 15.9 C
73 03-08-2019 06:00:00 18 C 87 % 15.8 C
74 03-08-2019 06:05:00 18 C 87 % 15.8 C
75 03-08-2019 06:10:00 17.9 C 87 % 15.71 C
Sensor: Nr:Datum:Temp:Feuchte:Taupunkt:
Aussen-T/F 76 03-08-2019 06:15:00 17.9 C 88 % 15.88 C
77 03-08-2019 06:20:00 17.9 C 88 % 15.88 C
78 03-08-2019 06:25:00 17.9 C 88 % 15.88 C
79 03-08-2019 06:30:00 17.9 C 87 % 15.71 C
80 03-08-2019 06:35:00 17.9 C 87 % 15.71 C
81 03-08-2019 06:40:00 17.9 C 87 % 15.71 C
82 03-08-2019 06:45:00 17.8 C 87 % 15.61 C
83 03-08-2019 06:50:00 17.8 C 87 % 15.61 C
84 03-08-2019 06:55:00 17.8 C 87 % 15.61 C
85 03-08-2019 07:00:00 17.8 C 87 % 15.61 C
86 03-08-2019 07:05:00 17.8 C 86 % 15.43 C
87 03-08-2019 07:10:00 17.8 C 86 % 15.43 C
88 03-08-2019 07:15:00 17.8 C 86 % 15.43 C
89 03-08-2019 07:20:00 17.8 C 86 % 15.43 C
90 03-08-2019 07:25:00 17.8 C 86 % 15.43 C
91 03-08-2019 07:30:00 17.9 C 86 % 15.53 C
92 03-08-2019 07:35:00 17.9 C 85 % 15.34 C
93 03-08-2019 07:40:00 17.9 C 85 % 15.34 C
94 03-08-2019 07:45:00 17.9 C 85 % 15.34 C
95 03-08-2019 07:50:00 17.9 C 85 % 15.34 C
96 03-08-2019 07:55:00 17.8 C 85 % 15.25 C
97 03-08-2019 08:00:00 17.8 C 86 % 15.43 C
98 03-08-2019 08:05:00 17.8 C 86 % 15.43 C
99 03-08-2019 08:10:00 17.8 C 85 % 15.25 C
100 03-08-2019 08:15:00 17.8 C 85 % 15.25 C
Sensor: Nr:Datum:Temp:Feuchte:Taupunkt:
Aussen-T/F 101 03-08-2019 08:20:00 17.8 C 85 % 15.25 C
102 03-08-2019 08:25:00 17.8 C 85 % 15.25 C
103 03-08-2019 08:30:00 17.9 C 85 % 15.34 C
104 03-08-2019 08:35:00 18 C 84 % 15.26 C
105 03-08-2019 08:40:00 18.1 C 84 % 15.35 C
106 03-08-2019 08:45:00 18.2 C 84 % 15.45 C
107 03-08-2019 08:50:00 18.2 C 83 % 15.27 C
108 03-08-2019 08:55:00 18.2 C 82 % 15.08 C
109 03-08-2019 09:00:00 18.2 C 82 % 15.08 C
110 03-08-2019 09:05:00 18.3 C 81 % 14.98 C
111 03-08-2019 09:10:00 18.3 C 81 % 14.98 C
112 03-08-2019 09:15:00 18.4 C 79 % 14.69 C
113 03-08-2019 09:20:00 18.5 C 79 % 14.79 C
114 03-08-2019 09:25:00 18.6 C 79 % 14.89 C
115 03-08-2019 09:30:00 18.7 C 79 % 14.99 C
116 03-08-2019 09:35:00 18.8 C 79 % 15.08 C
117 03-08-2019 09:40:00 18.8 C 78 % 14.88 C
118 03-08-2019 09:45:00 18.8 C 78 % 14.88 C
119 03-08-2019 09:50:00 18.9 C 78 % 14.98 C
120 03-08-2019 09:55:00 18.9 C 78 % 14.98 C
121 03-08-2019 10:00:00 19.1 C 77 % 14.97 C
122 03-08-2019 10:05:00 19.2 C 76 % 14.87 C
123 03-08-2019 10:10:00 19.3 C 76 % 14.97 C
124 03-08-2019 10:15:00 19.4 C 76 % 15.06 C
125 03-08-2019 10:20:00 19.7 C 76 % 15.35 C
Sensor: Nr:Datum:Temp:Feuchte:Taupunkt:
Aussen-T/F 126 03-08-2019 10:25:00 19.9 C 76 % 15.54 C
127 03-08-2019 10:30:00 19.8 C 75 % 15.24 C
128 03-08-2019 10:35:00 19.8 C 75 % 15.24 C
129 03-08-2019 10:40:00 19.7 C 76 % 15.35 C
130 03-08-2019 10:45:00 19.8 C 74 % 15.03 C
131 03-08-2019 10:50:00 19.8 C 74 % 15.03 C
132 03-08-2019 10:55:00 19.9 C 75 % 15.34 C
133 03-08-2019 11:00:00 19.9 C 74 % 15.13 C
134 03-08-2019 11:05:00 20 C 74 % 15.23 C
135 03-08-2019 11:10:00 20 C 75 % 15.43 C
136 03-08-2019 11:15:00 20.1 C 74 % 15.32 C
137 03-08-2019 11:20:00 20.2 C 73 % 15.21 C
138 03-08-2019 11:25:00 20.3 C 73 % 15.3 C
139 03-08-2019 11:30:00 20.3 C 73 % 15.3 C
140 03-08-2019 11:35:00 20.4 C 74 % 15.61 C
141 03-08-2019 11:40:00 20.7 C 73 % 15.69 C
142 03-08-2019 11:45:00 20.8 C 72 % 15.57 C
143 03-08-2019 11:50:00 20.8 C 71 % 15.35 C
144 03-08-2019 11:55:00 20.8 C 72 % 15.57 C
145 03-08-2019 12:00:00 20.8 C 71 % 15.35 C
146 03-08-2019 12:05:00 21 C 71 % 15.54 C
147 03-08-2019 12:10:00 21.3 C 69 % 15.38 C
148 03-08-2019 12:15:00 21.3 C 70 % 15.61 C
149 03-08-2019 12:20:00 21.4 C 68 % 15.25 C
150 03-08-2019 12:25:00 21.6 C 66 % 14.98 C
Sensor: Nr:Datum:Temp:Feuchte:Taupunkt:
Aussen-T/F 151 03-08-2019 12:30:00 21.8 C 66 % 15.17 C
152 03-08-2019 12:35:00 21.9 C 65 % 15.02 C
153 03-08-2019 12:40:00 21.9 C 65 % 15.02 C
154 03-08-2019 12:45:00 21.9 C 64 % 14.78 C
155 03-08-2019 12:50:00 21.9 C 64 % 14.78 C
156 03-08-2019 12:55:00 21.9 C 64 % 14.78 C
157 03-08-2019 13:00:00 21.9 C 65 % 15.02 C
158 03-08-2019 13:05:00 21.9 C 66 % 15.26 C
159 03-08-2019 13:10:00 21.9 C 66 % 15.26 C
160 03-08-2019 13:15:00 22.2 C 66 % 15.55 C
161 03-08-2019 13:20:00 22.3 C 63 % 14.92 C
162 03-08-2019 13:25:00 22.3 C 64 % 15.16 C
163 03-08-2019 13:30:00 22.3 C 64 % 15.16 C
164 03-08-2019 13:35:00 22.3 C 68 % 16.11 C
165 03-08-2019 13:40:00 22 C 68 % 15.82 C
166 03-08-2019 13:45:00 21.9 C 69 % 15.96 C
167 03-08-2019 13:50:00 21.8 C 68 % 15.63 C
168 03-08-2019 13:55:00 21.8 C 69 % 15.86 C
169 03-08-2019 14:00:00 21.7 C 69 % 15.77 C
170 03-08-2019 14:05:00 21.7 C 70 % 15.99 C
171 03-08-2019 14:10:00 21.6 C 68 % 15.44 C
172 03-08-2019 14:15:00 21.7 C 68 % 15.54 C
173 03-08-2019 14:20:00 21.8 C 67 % 15.4 C
174 03-08-2019 14:25:00 22 C 66 % 15.36 C
175 03-08-2019 14:30:00 22.1 C 65 % 15.21 C
Sensor: Nr:Datum:Temp:Feuchte:Taupunkt:
Aussen-T/F 176 03-08-2019 14:35:00 22.3 C 65 % 15.4 C
177 03-08-2019 14:40:00 22.5 C 64 % 15.35 C
178 03-08-2019 14:45:00 22.8 C 64 % 15.64 C
179 03-08-2019 14:50:00 23.1 C 62 % 15.42 C
180 03-08-2019 14:55:00 23.2 C 62 % 15.52 C
181 03-08-2019 15:00:00 23.5 C 60 % 15.29 C
182 03-08-2019 15:05:00 23.4 C 58 % 14.67 C
183 03-08-2019 15:10:00 23.4 C 56 % 14.13 C
184 03-08-2019 15:15:00 23.7 C 58 % 14.95 C
185 03-08-2019 15:20:00 23.9 C 55 % 14.31 C
186 03-08-2019 15:25:00 23.7 C 56 % 14.4 C
187 03-08-2019 15:30:00 23.6 C 60 % 15.38 C
188 03-08-2019 15:35:00 23.6 C 60 % 15.38 C
189 03-08-2019 15:40:00 23.7 C 60 % 15.48 C
190 03-08-2019 15:45:00 24.2 C 58 % 15.42 C
191 03-08-2019 15:50:00 24.4 C 59 % 15.87 C
192 03-08-2019 15:55:00 24.6 C 56 % 15.24 C
193 03-08-2019 16:00:00 24.7 C 56 % 15.33 C
194 03-08-2019 16:05:00 24.9 C 55 % 15.24 C
195 03-08-2019 16:10:00 24.9 C 54 % 14.95 C
196 03-08-2019 16:15:00 25 C 53 % 14.76 C
197 03-08-2019 16:20:00 25.1 C 54 % 15.14 C
198 03-08-2019 16:25:00 25.1 C 54 % 15.14 C
199 03-08-2019 16:30:00 25.2 C 53 % 14.94 C
200 03-08-2019 16:35:00 25.4 C 52 % 14.83 C
Sensor: Nr:Datum:Temp:Feuchte:Taupunkt:
Aussen-T/F 201 03-08-2019 16:40:00 25.3 C 52 % 14.74 C
202 03-08-2019 16:45:00 25.4 C 52 % 14.83 C
203 03-08-2019 16:50:00 25.5 C 52 % 14.92 C
204 03-08-2019 16:55:00 25.5 C 51 % 14.62 C
205 03-08-2019 17:00:00 25.6 C 52 % 15.02 C
206 03-08-2019 17:05:00 25.7 C 52 % 15.11 C
207 03-08-2019 17:10:00 25.7 C 51 % 14.81 C
208 03-08-2019 17:15:00 25.4 C 51 % 14.53 C
209 03-08-2019 17:20:00 25.3 C 51 % 14.44 C
210 03-08-2019 17:25:00 25.2 C 52 % 14.65 C
211 03-08-2019 17:30:00 25.2 C 52 % 14.65 C
212 03-08-2019 17:35:00 25.3 C 51 % 14.44 C
213 03-08-2019 17:40:00 25.4 C 51 % 14.53 C
214 03-08-2019 17:45:00 25.7 C 49 % 14.19 C
215 03-08-2019 17:50:00 25.7 C 50 % 14.5 C
216 03-08-2019 17:55:00 25.7 C 50 % 14.5 C
217 03-08-2019 18:00:00 25.6 C 50 % 14.41 C
218 03-08-2019 18:05:00 25.6 C 50 % 14.41 C
219 03-08-2019 18:10:00 25.7 C 50 % 14.5 C
220 03-08-2019 18:15:00 25.6 C 51 % 14.71 C
221 03-08-2019 18:20:00 25.6 C 51 % 14.71 C
222 03-08-2019 18:25:00 25.6 C 50 % 14.41 C
223 03-08-2019 18:30:00 25.6 C 50 % 14.41 C
224 03-08-2019 18:35:00 25.6 C 51 % 14.71 C
225 03-08-2019 18:40:00 25.3 C 52 % 14.74 C
Sensor: Nr:Datum:Temp:Feuchte:Taupunkt:
Aussen-T/F 226 03-08-2019 18:45:00 25.2 C 52 % 14.65 C
227 03-08-2019 18:50:00 25.1 C 52 % 14.55 C
228 03-08-2019 18:55:00 25.1 C 53 % 14.85 C
229 03-08-2019 19:00:00 25.1 C 53 % 14.85 C
230 03-08-2019 19:05:00 25.1 C 53 % 14.85 C
231 03-08-2019 19:10:00 24.9 C 53 % 14.66 C
232 03-08-2019 19:15:00 24.8 C 53 % 14.57 C
233 03-08-2019 19:20:00 24.6 C 54 % 14.68 C
234 03-08-2019 19:25:00 24.3 C 54 % 14.4 C
235 03-08-2019 19:30:00 24.1 C 55 % 14.5 C
236 03-08-2019 19:35:00 23.9 C 56 % 14.59 C
237 03-08-2019 19:40:00 23.8 C 56 % 14.5 C
238 03-08-2019 19:45:00 23.8 C 55 % 14.22 C
239 03-08-2019 19:50:00 23.7 C 56 % 14.4 C
240 03-08-2019 19:55:00 23.6 C 56 % 14.31 C
241 03-08-2019 20:00:00 23.5 C 56 % 14.22 C
242 03-08-2019 20:05:00 23.4 C 57 % 14.4 C
243 03-08-2019 20:10:00 23.2 C 58 % 14.48 C
244 03-08-2019 20:15:00 23 C 59 % 14.56 C
245 03-08-2019 20:20:00 22.9 C 59 % 14.47 C
246 03-08-2019 20:25:00 22.7 C 60 % 14.54 C
247 03-08-2019 20:30:00 22.6 C 60 % 14.44 C
248 03-08-2019 20:35:00 22.3 C 61 % 14.42 C
249 03-08-2019 20:40:00 22.2 C 61 % 14.32 C
250 03-08-2019 20:45:00 22 C 62 % 14.39 C
Sensor: Nr:Datum:Temp:Feuchte:Taupunkt:
Aussen-T/F 251 03-08-2019 20:50:00 21.9 C 62 % 14.29 C
252 03-08-2019 20:55:00 21.7 C 63 % 14.35 C
253 03-08-2019 21:00:00 21.5 C 63 % 14.16 C
254 03-08-2019 21:05:00 21.3 C 64 % 14.22 C
255 03-08-2019 21:10:00 21.1 C 64 % 14.03 C
256 03-08-2019 21:15:00 20.9 C 65 % 14.08 C
257 03-08-2019 21:20:00 20.8 C 66 % 14.22 C
258 03-08-2019 21:25:00 20.6 C 65 % 13.79 C
259 03-08-2019 21:30:00 20.5 C 66 % 13.93 C
260 03-08-2019 21:35:00 20.3 C 66 % 13.74 C
261 03-08-2019 21:40:00 20.2 C 66 % 13.65 C
262 03-08-2019 21:45:00 20.1 C 67 % 13.78 C
263 03-08-2019 21:50:00 19.8 C 68 % 13.73 C
264 03-08-2019 21:55:00 19.6 C 69 % 13.76 C
265 03-08-2019 22:00:00 19.2 C 70 % 13.6 C
266 03-08-2019 22:05:00 18.9 C 71 % 13.53 C
267 03-08-2019 22:10:00 18.6 C 72 % 13.46 C
268 03-08-2019 22:15:00 18.4 C 73 % 13.48 C
269 03-08-2019 22:20:00 18.2 C 73 % 13.28 C
270 03-08-2019 22:25:00 18.1 C 74 % 13.4 C
271 03-08-2019 22:30:00 17.9 C 75 % 13.41 C
272 03-08-2019 22:35:00 17.8 C 75 % 13.31 C
273 03-08-2019 22:40:00 17.7 C 76 % 13.42 C
274 03-08-2019 22:45:00 17.6 C 76 % 13.32 C
275 03-08-2019 22:50:00 17.5 C 77 % 13.43 C
Sensor: Nr:Datum:Temp:Feuchte:Taupunkt:
Aussen-T/F 276 03-08-2019 22:55:00 17.4 C 78 % 13.53 C
277 03-08-2019 23:00:00 17.3 C 78 % 13.43 C
278 03-08-2019 23:05:00 17.3 C 78 % 13.43 C
279 03-08-2019 23:10:00 17.2 C 79 % 13.53 C
280 03-08-2019 23:15:00 17.2 C 79 % 13.53 C
281 03-08-2019 23:20:00 17.1 C 80 % 13.62 C
282 03-08-2019 23:25:00 17.1 C 80 % 13.62 C
283 03-08-2019 23:30:00 17.1 C 80 % 13.62 C
284 03-08-2019 23:35:00 17 C 79 % 13.33 C
285 03-08-2019 23:40:00 16.9 C 79 % 13.24 C
286 03-08-2019 23:45:00 16.9 C 80 % 13.43 C
287 03-08-2019 23:50:00 16.8 C 80 % 13.33 C
288 03-08-2019 23:55:00 16.7 C 80 % 13.23 C

Legende:
   Min
   Max


Maximal/Minimal-Werte vom 03.08.2019 - 03.08.2019

Sensor Min Max Avg
Temp
(Aussen-T/F)
16.7 °C
03-08-2019  23:55:00
25.7 °C
03-08-2019  17:05:00
20.39 °C
Feuchte
(Aussen-T/F)
49 %
03-08-2019  17:45:00
88 %
03-08-2019  06:15:00
72.58 %
Taupunkt
(Aussen-T/F)
13.23 C
03-08-2019  23:55:00
16.11 C
03-08-2019  13:35:00
14.97 C

Die Daten stammen von einer Davis Vantage Pro 2 Wetter-Station und werden unter Linux mit der Software wview2wettercgi und aufbereitet. Alle Angaben erfolgen ohne Gewähr für ihre Vollständigkeit oder Richtigkeit.
Kontakt: Rainer Krienke krienke@uni-koblenz.de . Meine Webseiten an der Uni Koblenz oder privat.
Version: $Revision: 0.78 $